Year,Month,Day,Hour,Minute,Value (Times are PST for temperature in C)
2007,12,03,00,00,0.10
2007,12,03,00,01,0.10
2007,12,03,00,02,0.10
2007,12,03,00,03,0.10
2007,12,03,00,04,0.10
2007,12,03,00,05,0.10
2007,12,03,00,06,0.10
2007,12,03,00,07,0.10
2007,12,03,00,08,0.10
2007,12,03,00,09,0.00
2007,12,03,00,10,0.00
2007,12,03,00,11,0.00
2007,12,03,00,12,0.00
2007,12,03,00,13,0.00
2007,12,03,00,14,0.00
2007,12,03,00,15,0.00
2007,12,03,00,16,0.10
2007,12,03,00,17,0.10
2007,12,03,00,18,0.10
2007,12,03,00,19,0.20
2007,12,03,00,20,0.20
2007,12,03,00,21,0.10
2007,12,03,00,22,0.10
2007,12,03,00,23,0.10
2007,12,03,00,24,0.10
2007,12,03,00,25,0.00
2007,12,03,00,26,0.00
2007,12,03,00,27,0.00
2007,12,03,00,28,-0.10
2007,12,03,00,29,-0.10
2007,12,03,00,30,-0.10
2007,12,03,00,31,-0.10
2007,12,03,00,32,-0.10
2007,12,03,00,33,-0.10
2007,12,03,00,34,-0.10
2007,12,03,00,35,-0.10
2007,12,03,00,36,-0.10
2007,12,03,00,37,-0.10
2007,12,03,00,38,-0.10
2007,12,03,00,39,-0.10
2007,12,03,00,40,-0.10
2007,12,03,00,41,-0.10
2007,12,03,00,42,-0.10
2007,12,03,00,43,-0.10
2007,12,03,00,44,-0.10
2007,12,03,00,45,-0.10
2007,12,03,00,46,-0.10
2007,12,03,00,47,-0.10
2007,12,03,00,48,0.00
2007,12,03,00,49,0.00
2007,12,03,00,50,0.00
2007,12,03,00,51,0.00
2007,12,03,00,52,0.00
2007,12,03,00,53,0.00
2007,12,03,00,54,-0.10
2007,12,03,00,55,-0.10
2007,12,03,00,56,-0.10
2007,12,03,00,57,0.00
2007,12,03,00,58,0.00
2007,12,03,00,59,0.00
2007,12,03,01,00,0.00
2007,12,03,01,01,0.00
2007,12,03,01,02,0.10
2007,12,03,01,03,0.10
2007,12,03,01,04,0.00
2007,12,03,01,05,0.00
2007,12,03,01,06,0.00
2007,12,03,01,07,0.00
2007,12,03,01,08,0.00
2007,12,03,01,09,0.00
2007,12,03,01,10,0.00
2007,12,03,01,11,0.00
2007,12,03,01,12,0.00
2007,12,03,01,13,0.10
2007,12,03,01,14,0.10
2007,12,03,01,15,0.10
2007,12,03,01,16,0.10
2007,12,03,01,17,0.10
2007,12,03,01,18,0.10
2007,12,03,01,19,0.10
2007,12,03,01,20,0.20
2007,12,03,01,21,0.20
2007,12,03,01,22,0.20
2007,12,03,01,23,0.20
2007,12,03,01,24,0.10
2007,12,03,01,25,0.10
2007,12,03,01,26,0.10
2007,12,03,01,27,0.10
2007,12,03,01,28,0.10
2007,12,03,01,29,0.20
2007,12,03,01,30,0.30
2007,12,03,01,31,0.30
2007,12,03,01,32,0.40
2007,12,03,01,33,0.40
2007,12,03,01,34,0.40
2007,12,03,01,35,0.40
2007,12,03,01,36,0.30
2007,12,03,01,37,0.30
2007,12,03,01,38,0.30
2007,12,03,01,39,0.20
2007,12,03,01,40,0.20
2007,12,03,01,41,0.20
2007,12,03,01,42,0.20
2007,12,03,01,43,0.20
2007,12,03,01,44,0.20
2007,12,03,01,45,0.20
2007,12,03,01,46,0.20
2007,12,03,01,47,0.20
2007,12,03,01,48,0.20
2007,12,03,01,49,0.30
2007,12,03,01,50,0.30
2007,12,03,01,51,0.40
2007,12,03,01,52,0.40
2007,12,03,01,53,0.40
2007,12,03,01,54,0.40
2007,12,03,01,55,0.40
2007,12,03,01,56,0.40
2007,12,03,01,57,0.40
2007,12,03,01,58,0.30
2007,12,03,01,59,0.30
2007,12,03,02,00,0.30
2007,12,03,02,01,0.30
2007,12,03,02,02,0.30
2007,12,03,02,03,0.20
2007,12,03,02,04,0.30
2007,12,03,02,05,0.30
2007,12,03,02,06,0.30
2007,12,03,02,07,0.30
2007,12,03,02,08,0.20
2007,12,03,02,09,0.20
2007,12,03,02,10,0.20
2007,12,03,02,11,0.20
2007,12,03,02,12,0.20
2007,12,03,02,13,0.20
2007,12,03,02,14,0.20
2007,12,03,02,15,0.30
2007,12,03,02,16,0.30
2007,12,03,02,17,0.40
2007,12,03,02,18,0.60
2007,12,03,02,19,0.70
2007,12,03,02,20,0.70
2007,12,03,02,21,0.80
2007,12,03,02,22,0.90
2007,12,03,02,23,1.00
2007,12,03,02,24,1.30
2007,12,03,02,25,1.50
2007,12,03,02,26,1.70
2007,12,03,02,27,1.90
2007,12,03,02,28,2.10
2007,12,03,02,29,2.10
2007,12,03,02,30,2.10
2007,12,03,02,31,2.10
2007,12,03,02,32,2.10
2007,12,03,02,33,2.00
2007,12,03,02,34,1.90
2007,12,03,02,35,1.80
2007,12,03,02,36,1.80
2007,12,03,02,37,1.80
2007,12,03,02,38,1.80
2007,12,03,02,39,1.90
2007,12,03,02,40,2.00
2007,12,03,02,41,2.00
2007,12,03,02,42,2.10
2007,12,03,02,43,2.10
2007,12,03,02,44,2.20
2007,12,03,02,45,2.40
2007,12,03,02,46,2.60
2007,12,03,02,47,2.80
2007,12,03,02,48,2.90
2007,12,03,02,49,2.90
2007,12,03,02,50,2.90
2007,12,03,02,51,2.80
2007,12,03,02,52,2.80
2007,12,03,02,53,2.70
2007,12,03,02,54,2.70
2007,12,03,02,55,2.70
2007,12,03,02,56,2.70
2007,12,03,02,57,2.70
2007,12,03,02,58,2.90
2007,12,03,02,59,3.10
2007,12,03,03,00,3.20
2007,12,03,03,01,3.30
2007,12,03,03,02,3.30
2007,12,03,03,03,3.30
2007,12,03,03,04,3.20
2007,12,03,03,05,3.20
2007,12,03,03,06,3.20
2007,12,03,03,07,3.30
2007,12,03,03,08,3.40
2007,12,03,03,09,3.60
2007,12,03,03,10,3.80
2007,12,03,03,11,3.90
2007,12,03,03,12,3.90
2007,12,03,03,13,3.70
2007,12,03,03,14,3.60
2007,12,03,03,15,3.50
2007,12,03,03,16,3.50
2007,12,03,03,17,3.50
2007,12,03,03,18,3.70
2007,12,03,03,19,3.70
2007,12,03,03,20,3.70
2007,12,03,03,21,3.70
2007,12,03,03,22,3.70
2007,12,03,03,23,3.70
2007,12,03,03,24,3.80
2007,12,03,03,25,3.80
2007,12,03,03,26,3.70
2007,12,03,03,27,3.80
2007,12,03,03,28,3.90
2007,12,03,03,29,4.40
2007,12,03,03,30,4.80
2007,12,03,03,31,5.00
2007,12,03,03,32,5.10
2007,12,03,03,33,5.10
2007,12,03,03,34,5.00
2007,12,03,03,35,4.90
2007,12,03,03,36,4.90
2007,12,03,03,37,4.90
2007,12,03,03,38,4.90
2007,12,03,03,39,4.90
2007,12,03,03,40,4.90
2007,12,03,03,41,4.90
2007,12,03,03,42,4.80
2007,12,03,03,43,4.80
2007,12,03,03,44,4.70
2007,12,03,03,45,4.70
2007,12,03,03,46,4.60
2007,12,03,03,47,4.50
2007,12,03,03,48,4.50
2007,12,03,03,49,4.40
2007,12,03,03,50,4.30
2007,12,03,03,51,4.20
2007,12,03,03,52,4.10
2007,12,03,03,53,4.10
2007,12,03,03,54,4.10
2007,12,03,03,55,4.10
2007,12,03,03,56,4.00
2007,12,03,03,57,3.90
2007,12,03,03,58,3.90
2007,12,03,03,59,3.90
2007,12,03,04,00,3.80
2007,12,03,04,01,3.80
2007,12,03,04,02,3.80
2007,12,03,04,03,3.80
2007,12,03,04,04,3.80
2007,12,03,04,05,3.80
2007,12,03,04,06,3.70
2007,12,03,04,07,3.70
2007,12,03,04,08,3.70
2007,12,03,04,09,3.70
2007,12,03,04,10,3.70
2007,12,03,04,11,3.70
2007,12,03,04,12,3.70
2007,12,03,04,13,3.70
2007,12,03,04,14,3.70
2007,12,03,04,15,3.70
2007,12,03,04,16,3.70
2007,12,03,04,17,3.70
2007,12,03,04,18,3.70
2007,12,03,04,19,3.70
2007,12,03,04,20,3.70
2007,12,03,04,21,3.70
2007,12,03,04,22,3.70
2007,12,03,04,23,3.70
2007,12,03,04,24,3.60
2007,12,03,04,25,3.70
2007,12,03,04,26,3.70
2007,12,03,04,27,3.70
2007,12,03,04,28,3.70
2007,12,03,04,29,3.60
2007,12,03,04,30,3.60
2007,12,03,04,31,3.60
2007,12,03,04,32,3.60
2007,12,03,04,33,3.70
2007,12,03,04,34,3.70
2007,12,03,04,35,3.70
2007,12,03,04,36,3.70
2007,12,03,04,37,3.70
2007,12,03,04,38,3.70
2007,12,03,04,39,3.70
2007,12,03,04,40,3.70
2007,12,03,04,41,3.70
2007,12,03,04,42,3.70
2007,12,03,04,43,3.70
2007,12,03,04,44,3.70
2007,12,03,04,45,3.70
2007,12,03,04,46,3.60
2007,12,03,04,47,3.60
2007,12,03,04,48,3.50
2007,12,03,04,49,3.50
2007,12,03,04,50,3.50
2007,12,03,04,51,3.50
2007,12,03,04,52,3.40
2007,12,03,04,53,3.40
2007,12,03,04,54,3.40
2007,12,03,04,55,3.40
2007,12,03,04,56,3.40
2007,12,03,04,57,3.40
2007,12,03,04,58,3.40
2007,12,03,04,59,3.40
2007,12,03,05,00,3.40
2007,12,03,05,01,3.40
2007,12,03,05,02,3.40
2007,12,03,05,03,3.40
2007,12,03,05,04,3.40
2007,12,03,05,05,3.40
2007,12,03,05,06,3.40
2007,12,03,05,07,3.40
2007,12,03,05,08,3.40
2007,12,03,05,09,3.40
2007,12,03,05,10,3.40
2007,12,03,05,11,3.40
2007,12,03,05,12,3.40
2007,12,03,05,13,3.40
2007,12,03,05,14,3.40
2007,12,03,05,15,3.40
2007,12,03,05,16,3.40
2007,12,03,05,17,3.40
2007,12,03,05,18,3.40
2007,12,03,05,19,3.40
2007,12,03,05,20,3.40
2007,12,03,05,21,3.40
2007,12,03,05,22,3.50
2007,12,03,05,23,3.50
2007,12,03,05,24,3.50
2007,12,03,05,25,3.50
2007,12,03,05,26,3.50
2007,12,03,05,27,3.50
2007,12,03,05,28,3.50
2007,12,03,05,29,3.60
2007,12,03,05,30,3.60
2007,12,03,05,31,3.60
2007,12,03,05,32,3.60
2007,12,03,05,33,3.60
2007,12,03,05,34,3.60
2007,12,03,05,35,3.60
2007,12,03,05,36,3.50
2007,12,03,05,37,3.50
2007,12,03,05,38,3.50
2007,12,03,05,39,3.50
2007,12,03,05,40,3.50
2007,12,03,05,41,3.50
2007,12,03,05,42,3.50
2007,12,03,05,43,3.60
2007,12,03,05,44,3.60
2007,12,03,05,45,3.60
2007,12,03,05,46,3.70
2007,12,03,05,47,3.80
2007,12,03,05,48,3.80
2007,12,03,05,49,3.90
2007,12,03,05,50,3.90
2007,12,03,05,51,3.90
2007,12,03,05,52,3.90
2007,12,03,05,53,3.90
2007,12,03,05,54,3.90
2007,12,03,05,55,3.90
2007,12,03,05,56,3.90
2007,12,03,05,57,3.90
2007,12,03,05,58,3.90
2007,12,03,05,59,3.90
2007,12,03,06,00,3.90
2007,12,03,06,01,3.90
2007,12,03,06,02,4.00
2007,12,03,06,03,4.10
2007,12,03,06,04,4.10
2007,12,03,06,05,4.20
2007,12,03,06,06,4.20
2007,12,03,06,07,4.30
2007,12,03,06,08,4.30
2007,12,03,06,09,4.30
2007,12,03,06,10,4.30
2007,12,03,06,11,4.30
2007,12,03,06,12,4.30
2007,12,03,06,13,4.30
2007,12,03,06,14,4.30
2007,12,03,06,15,4.20
2007,12,03,06,16,4.20
2007,12,03,06,17,4.20
2007,12,03,06,18,4.20
2007,12,03,06,19,4.20
2007,12,03,06,20,4.20
2007,12,03,06,21,4.20
2007,12,03,06,22,4.30
2007,12,03,06,23,4.30
2007,12,03,06,24,4.30
2007,12,03,06,25,4.40
2007,12,03,06,26,4.40
2007,12,03,06,27,4.50
2007,12,03,06,28,4.50
2007,12,03,06,29,4.60
2007,12,03,06,30,4.60
2007,12,03,06,31,4.60
2007,12,03,06,32,4.60
2007,12,03,06,33,4.60
2007,12,03,06,34,4.60
2007,12,03,06,35,4.60
2007,12,03,06,36,4.60
2007,12,03,06,37,4.60
2007,12,03,06,38,4.60
2007,12,03,06,39,4.60
2007,12,03,06,40,4.60
2007,12,03,06,41,4.60
2007,12,03,06,42,4.50
2007,12,03,06,43,4.50
2007,12,03,06,44,4.50
2007,12,03,06,45,4.40
2007,12,03,06,46,4.40
2007,12,03,06,47,4.40
2007,12,03,06,48,4.30
2007,12,03,06,49,4.30
2007,12,03,06,50,4.20
2007,12,03,06,51,4.20
2007,12,03,06,52,4.20
2007,12,03,06,53,4.30
2007,12,03,06,54,4.30
2007,12,03,06,55,4.30
2007,12,03,06,56,4.40
2007,12,03,06,57,4.40
2007,12,03,06,58,4.40
2007,12,03,06,59,4.40
2007,12,03,07,00,4.40
2007,12,03,07,01,4.40
2007,12,03,07,02,4.40
2007,12,03,07,03,4.40
2007,12,03,07,04,4.40
2007,12,03,07,05,4.40
2007,12,03,07,06,4.40
2007,12,03,07,07,4.40
2007,12,03,07,08,4.40
2007,12,03,07,09,4.40
2007,12,03,07,10,4.40
2007,12,03,07,11,4.40
2007,12,03,07,12,4.40
2007,12,03,07,13,4.60
2007,12,03,07,14,4.70
2007,12,03,07,15,4.80
2007,12,03,07,16,4.80
2007,12,03,07,17,4.90
2007,12,03,07,18,5.10
2007,12,03,07,19,5.30
2007,12,03,07,20,5.40
2007,12,03,07,21,5.50
2007,12,03,07,22,5.70
2007,12,03,07,23,5.70
2007,12,03,07,24,5.80
2007,12,03,07,25,5.90
2007,12,03,07,26,6.00
2007,12,03,07,27,6.30
2007,12,03,07,28,6.40
2007,12,03,07,29,6.50
2007,12,03,07,30,6.60
2007,12,03,07,31,6.70
2007,12,03,07,32,6.80
2007,12,03,07,33,6.90
2007,12,03,07,34,7.00
2007,12,03,07,35,7.20
2007,12,03,07,36,7.50
2007,12,03,07,37,7.70
2007,12,03,07,38,7.90
2007,12,03,07,39,8.00
2007,12,03,07,40,8.10
2007,12,03,07,41,8.10
2007,12,03,07,42,8.00
2007,12,03,07,43,8.10
2007,12,03,07,44,7.90
2007,12,03,07,45,7.80
2007,12,03,07,46,7.90
2007,12,03,07,47,8.00
2007,12,03,07,48,8.10
2007,12,03,07,49,8.20
2007,12,03,07,50,8.30
2007,12,03,07,51,8.20
2007,12,03,07,52,8.10
2007,12,03,07,53,8.00
2007,12,03,07,54,8.00
2007,12,03,07,55,8.10
2007,12,03,07,56,8.20
2007,12,03,07,57,8.30
2007,12,03,07,58,8.40
2007,12,03,07,59,8.50
2007,12,03,08,00,8.60
2007,12,03,08,01,8.70
2007,12,03,08,02,8.80
2007,12,03,08,03,8.90
2007,12,03,08,04,9.00
2007,12,03,08,05,9.10
2007,12,03,08,06,9.20
2007,12,03,08,07,9.20
2007,12,03,08,08,9.20
2007,12,03,08,09,9.20
2007,12,03,08,10,9.20
2007,12,03,08,11,9.20
2007,12,03,08,12,9.20
2007,12,03,08,13,9.20
2007,12,03,08,14,9.30
2007,12,03,08,15,9.30
2007,12,03,08,16,9.30
2007,12,03,08,17,9.30
2007,12,03,08,18,9.30
2007,12,03,08,19,9.30
2007,12,03,08,20,9.20
2007,12,03,08,21,9.00
2007,12,03,08,22,8.90
2007,12,03,08,23,8.80
2007,12,03,08,24,8.80
2007,12,03,08,25,8.80
2007,12,03,08,26,8.60
2007,12,03,08,27,8.40
2007,12,03,08,28,8.40
2007,12,03,08,29,8.20
2007,12,03,08,30,7.90
2007,12,03,08,31,7.70
2007,12,03,08,32,7.50
2007,12,03,08,33,7.30
2007,12,03,08,34,7.10
2007,12,03,08,35,6.90
2007,12,03,08,36,6.80
2007,12,03,08,37,6.60
2007,12,03,08,38,6.50
2007,12,03,08,39,6.40
2007,12,03,08,40,6.30
2007,12,03,08,41,6.30
2007,12,03,08,42,6.30
2007,12,03,08,43,6.20
2007,12,03,08,44,6.20
2007,12,03,08,45,6.20
2007,12,03,08,46,6.20
2007,12,03,08,47,6.10
2007,12,03,08,48,6.10
2007,12,03,08,49,6.00
2007,12,03,08,50,5.90
2007,12,03,08,51,5.90
2007,12,03,08,52,5.90
2007,12,03,08,53,5.80
2007,12,03,08,54,5.80
2007,12,03,08,55,5.80
2007,12,03,08,56,5.80
2007,12,03,08,57,5.80
2007,12,03,08,58,5.70
2007,12,03,08,59,5.70
2007,12,03,09,00,5.70
2007,12,03,09,01,5.60
2007,12,03,09,02,5.60
2007,12,03,09,03,5.50
2007,12,03,09,04,5.50
2007,12,03,09,05,5.40
2007,12,03,09,06,5.30
2007,12,03,09,07,5.30
2007,12,03,09,08,5.20
2007,12,03,09,09,5.10
2007,12,03,09,10,5.10
2007,12,03,09,11,5.10
2007,12,03,09,12,5.10
2007,12,03,09,13,5.10
2007,12,03,09,14,5.10
2007,12,03,09,15,5.00
2007,12,03,09,16,4.90
2007,12,03,09,17,4.90
2007,12,03,09,18,4.80
2007,12,03,09,19,4.80
2007,12,03,09,20,4.80
2007,12,03,09,21,4.80
2007,12,03,09,22,4.80
2007,12,03,09,23,4.80
2007,12,03,09,24,4.70
2007,12,03,09,25,4.60
2007,12,03,09,26,4.60
2007,12,03,09,27,4.60
2007,12,03,09,28,4.70
2007,12,03,09,29,4.70
2007,12,03,09,30,4.60
2007,12,03,09,31,4.50
2007,12,03,09,32,4.40
2007,12,03,09,33,4.40
2007,12,03,09,34,4.30
2007,12,03,09,35,4.20
2007,12,03,09,36,4.20
2007,12,03,09,37,4.20
2007,12,03,09,38,4.30
2007,12,03,09,39,4.40
2007,12,03,09,40,4.60
2007,12,03,09,41,4.80
2007,12,03,09,42,4.80
2007,12,03,09,43,4.80
2007,12,03,09,44,4.80
2007,12,03,09,45,4.80
2007,12,03,09,46,4.70
2007,12,03,09,47,4.70
2007,12,03,09,48,4.70
2007,12,03,09,49,4.70
2007,12,03,09,50,4.70
2007,12,03,09,51,4.70
2007,12,03,09,52,4.80
2007,12,03,09,53,4.80
2007,12,03,09,54,4.80
2007,12,03,09,55,4.70
2007,12,03,09,56,4.60
2007,12,03,09,57,4.50
2007,12,03,09,58,4.30
2007,12,03,09,59,4.30
2007,12,03,10,00,4.30
2007,12,03,10,01,4.30
2007,12,03,10,02,4.30
2007,12,03,10,03,4.30
2007,12,03,10,04,4.40
2007,12,03,10,05,4.50
2007,12,03,10,06,4.50
2007,12,03,10,07,4.50
2007,12,03,10,08,4.50
2007,12,03,10,09,4.40
2007,12,03,10,10,4.40
2007,12,03,10,11,4.40
2007,12,03,10,12,4.40
2007,12,03,10,13,4.30
2007,12,03,10,14,4.30
2007,12,03,10,15,4.30
2007,12,03,10,16,4.30
2007,12,03,10,17,4.30
2007,12,03,10,18,4.30
2007,12,03,10,19,4.20
2007,12,03,10,20,4.20
2007,12,03,10,21,4.10
2007,12,03,10,22,4.10
2007,12,03,10,23,4.10
2007,12,03,10,24,4.00
2007,12,03,10,25,4.00
2007,12,03,10,26,4.00
2007,12,03,10,27,4.00
2007,12,03,10,28,4.00
2007,12,03,10,29,4.00
2007,12,03,10,30,3.90
2007,12,03,10,31,3.90
2007,12,03,10,32,3.90
2007,12,03,10,33,3.80
2007,12,03,10,34,3.80
2007,12,03,10,35,3.80
2007,12,03,10,36,3.80
2007,12,03,10,37,3.80
2007,12,03,10,38,3.80
2007,12,03,10,39,3.80
2007,12,03,10,40,3.80
2007,12,03,10,41,3.80
2007,12,03,10,42,3.80
2007,12,03,10,43,3.80
2007,12,03,10,44,3.80
2007,12,03,10,45,3.80
2007,12,03,10,46,3.80
2007,12,03,10,47,3.80
2007,12,03,10,48,3.80
2007,12,03,10,49,3.70
2007,12,03,10,50,3.80
2007,12,03,10,51,3.70
2007,12,03,10,52,3.70
2007,12,03,10,53,3.70
2007,12,03,10,54,3.70
2007,12,03,10,55,3.70
2007,12,03,10,56,3.70
2007,12,03,10,57,3.80
2007,12,03,10,58,3.90
2007,12,03,10,59,3.90
2007,12,03,11,00,3.90
2007,12,03,11,01,3.90
2007,12,03,11,02,4.00
2007,12,03,11,03,4.00
2007,12,03,11,04,4.00
2007,12,03,11,05,4.00
2007,12,03,11,06,4.00
2007,12,03,11,07,4.10
2007,12,03,11,08,4.20
2007,12,03,11,09,4.20
2007,12,03,11,10,4.20
2007,12,03,11,11,4.20
2007,12,03,11,12,4.30
2007,12,03,11,13,4.30
2007,12,03,11,14,4.30
2007,12,03,11,15,4.30
2007,12,03,11,16,4.30
2007,12,03,11,17,4.30
2007,12,03,11,18,4.30
2007,12,03,11,19,4.20
2007,12,03,11,20,4.20
2007,12,03,11,21,4.20
2007,12,03,11,22,4.20
2007,12,03,11,23,4.10
2007,12,03,11,24,4.10
2007,12,03,11,25,4.10
2007,12,03,11,26,4.20
2007,12,03,11,27,4.20
2007,12,03,11,28,4.30
2007,12,03,11,29,4.30
2007,12,03,11,30,4.30
2007,12,03,11,31,4.20
2007,12,03,11,32,4.20
2007,12,03,11,33,4.30
2007,12,03,11,34,4.60
2007,12,03,11,35,4.70
2007,12,03,11,36,5.00
2007,12,03,11,37,5.20
2007,12,03,11,38,5.40
2007,12,03,11,39,5.50
2007,12,03,11,40,5.90
2007,12,03,11,41,6.50
2007,12,03,11,42,6.80
2007,12,03,11,43,7.10
2007,12,03,11,44,7.30
2007,12,03,11,45,7.60
2007,12,03,11,46,7.70
2007,12,03,11,47,7.80
2007,12,03,11,48,8.00
2007,12,03,11,49,8.20
2007,12,03,11,50,8.30
2007,12,03,11,51,8.40
2007,12,03,11,52,8.70
2007,12,03,11,53,9.00
2007,12,03,11,54,9.00
2007,12,03,11,55,9.00
2007,12,03,11,56,9.00
2007,12,03,11,57,9.00
2007,12,03,11,58,9.00
2007,12,03,11,59,9.10
2007,12,03,12,00,9.10
2007,12,03,12,01,9.20
2007,12,03,12,02,9.20
2007,12,03,12,03,9.20
2007,12,03,12,04,9.20
2007,12,03,12,05,9.10
2007,12,03,12,06,9.00
2007,12,03,12,07,9.00
2007,12,03,12,08,8.90
2007,12,03,12,09,8.80
2007,12,03,12,10,8.80
2007,12,03,12,11,8.80
2007,12,03,12,12,8.90
2007,12,03,12,13,9.10
2007,12,03,12,14,9.20
2007,12,03,12,15,9.40
2007,12,03,12,16,9.50
2007,12,03,12,17,9.50
2007,12,03,12,18,9.60
2007,12,03,12,19,9.70
2007,12,03,12,20,9.70
2007,12,03,12,21,9.80
2007,12,03,12,22,9.90
2007,12,03,12,23,9.80
2007,12,03,12,24,9.80
2007,12,03,12,25,10.00
2007,12,03,12,26,10.10
2007,12,03,12,27,10.20
2007,12,03,12,28,10.10
2007,12,03,12,29,10.10
2007,12,03,12,30,10.00
2007,12,03,12,31,9.90
2007,12,03,12,32,9.90
2007,12,03,12,33,9.90
2007,12,03,12,34,10.00
2007,12,03,12,35,10.10
2007,12,03,12,36,10.10
2007,12,03,12,37,10.20
2007,12,03,12,38,10.30
2007,12,03,12,39,10.30
2007,12,03,12,40,10.40
2007,12,03,12,41,10.50
2007,12,03,12,42,10.50
2007,12,03,12,43,10.60
2007,12,03,12,44,10.50
2007,12,03,12,45,10.50
2007,12,03,12,46,10.60
2007,12,03,12,47,10.80
2007,12,03,12,48,10.90
2007,12,03,12,49,10.90
2007,12,03,12,50,10.90
2007,12,03,12,51,10.90
2007,12,03,12,52,11.00
2007,12,03,12,53,11.00
2007,12,03,12,54,11.10
2007,12,03,12,55,11.10
2007,12,03,12,56,11.00
2007,12,03,12,57,11.00
2007,12,03,12,58,11.00
2007,12,03,12,59,11.00
2007,12,03,13,00,11.00
2007,12,03,13,01,11.00
2007,12,03,13,02,11.00
2007,12,03,13,03,11.00
2007,12,03,13,04,11.00
2007,12,03,13,05,11.00
2007,12,03,13,06,11.00
2007,12,03,13,07,10.90
2007,12,03,13,08,10.90
2007,12,03,13,09,10.90
2007,12,03,13,10,10.80
2007,12,03,13,11,10.90
2007,12,03,13,12,10.90
2007,12,03,13,13,10.90
2007,12,03,13,14,10.90
2007,12,03,13,15,10.80
2007,12,03,13,16,10.80
2007,12,03,13,17,10.80
2007,12,03,13,18,10.70
2007,12,03,13,19,10.60
2007,12,03,13,20,10.50
2007,12,03,13,21,10.50
2007,12,03,13,22,10.40
2007,12,03,13,23,10.30
2007,12,03,13,24,10.30
2007,12,03,13,25,10.30
2007,12,03,13,26,10.30
2007,12,03,13,27,10.30
2007,12,03,13,28,10.40
2007,12,03,13,29,10.40
2007,12,03,13,30,10.40
2007,12,03,13,31,10.50
2007,12,03,13,32,10.50
2007,12,03,13,33,10.50
2007,12,03,13,34,10.50
2007,12,03,13,35,10.40
2007,12,03,13,36,10.50
2007,12,03,13,37,10.50
2007,12,03,13,38,10.50
2007,12,03,13,39,10.40
2007,12,03,13,40,10.40
2007,12,03,13,41,10.40
2007,12,03,13,42,10.40
2007,12,03,13,43,10.40
2007,12,03,13,44,10.50
2007,12,03,13,45,10.60
2007,12,03,13,46,10.60
2007,12,03,13,47,10.60
2007,12,03,13,48,10.50
2007,12,03,13,49,10.50
2007,12,03,13,50,10.50
2007,12,03,13,51,10.50
2007,12,03,13,52,10.40
2007,12,03,13,53,10.40
2007,12,03,13,54,10.50
2007,12,03,13,55,10.50
2007,12,03,13,56,10.50
2007,12,03,13,57,10.50
2007,12,03,13,58,10.60
2007,12,03,13,59,10.50
2007,12,03,14,00,10.50
2007,12,03,14,01,10.50
2007,12,03,14,02,10.50
2007,12,03,14,03,10.40
2007,12,03,14,04,10.40
2007,12,03,14,05,10.40
2007,12,03,14,06,10.40
2007,12,03,14,07,10.40
2007,12,03,14,08,10.40
2007,12,03,14,09,10.30
2007,12,03,14,10,10.30
2007,12,03,14,11,10.30
2007,12,03,14,12,10.30
2007,12,03,14,13,10.30
2007,12,03,14,14,10.30
2007,12,03,14,15,10.20
2007,12,03,14,16,10.20
2007,12,03,14,17,10.20
2007,12,03,14,18,10.20
2007,12,03,14,19,10.20
2007,12,03,14,20,10.20
2007,12,03,14,21,10.20
2007,12,03,14,22,10.20
2007,12,03,14,23,10.20
2007,12,03,14,24,10.30
2007,12,03,14,25,10.30
2007,12,03,14,26,10.30
2007,12,03,14,27,10.20
2007,12,03,14,28,10.20
2007,12,03,14,29,10.20
2007,12,03,14,30,10.20
2007,12,03,14,31,10.10
2007,12,03,14,32,10.10
2007,12,03,14,33,10.10
2007,12,03,14,34,10.00
2007,12,03,14,35,9.90
2007,12,03,14,36,9.90
2007,12,03,14,37,9.80
2007,12,03,14,38,9.80
2007,12,03,14,39,9.70
2007,12,03,14,40,9.60
2007,12,03,14,41,9.60
2007,12,03,14,42,9.60
2007,12,03,14,43,9.60
2007,12,03,14,44,9.50
2007,12,03,14,45,9.50
2007,12,03,14,46,9.50
2007,12,03,14,47,9.50
2007,12,03,14,48,9.50
2007,12,03,14,49,9.50
2007,12,03,14,50,9.50
2007,12,03,14,51,9.50
2007,12,03,14,52,9.40
2007,12,03,14,53,9.40
2007,12,03,14,54,9.40
2007,12,03,14,55,9.30
2007,12,03,14,56,9.30
2007,12,03,14,57,9.30
2007,12,03,14,58,9.30
2007,12,03,14,59,9.20
2007,12,03,15,00,9.30
2007,12,03,15,01,9.40
2007,12,03,15,02,9.40
2007,12,03,15,03,9.50
2007,12,03,15,04,9.50
2007,12,03,15,05,9.50
2007,12,03,15,06,9.50
2007,12,03,15,07,9.40
2007,12,03,15,08,9.40
2007,12,03,15,09,9.40
2007,12,03,15,10,9.40
2007,12,03,15,11,9.40
2007,12,03,15,12,9.40
2007,12,03,15,13,9.40
2007,12,03,15,14,9.40
2007,12,03,15,15,9.30
2007,12,03,15,16,9.20
2007,12,03,15,17,9.10
2007,12,03,15,18,9.00
2007,12,03,15,19,8.90
2007,12,03,15,20,8.80
2007,12,03,15,21,8.80
2007,12,03,15,22,8.70
2007,12,03,15,23,8.60
2007,12,03,15,24,8.50
2007,12,03,15,25,8.40
2007,12,03,15,26,8.40
2007,12,03,15,27,8.30
2007,12,03,15,28,8.30
2007,12,03,15,29,8.30
2007,12,03,15,30,8.20
2007,12,03,15,31,8.20
2007,12,03,15,32,8.20
2007,12,03,15,33,8.20
2007,12,03,15,34,8.10
2007,12,03,15,35,8.10
2007,12,03,15,36,7.90
2007,12,03,15,37,7.90
2007,12,03,15,38,7.90
2007,12,03,15,39,7.80
2007,12,03,15,40,7.80
2007,12,03,15,41,7.80
2007,12,03,15,42,7.80
2007,12,03,15,43,7.70
2007,12,03,15,44,7.60
2007,12,03,15,45,7.60
2007,12,03,15,46,7.50
2007,12,03,15,47,7.40
2007,12,03,15,48,7.40
2007,12,03,15,49,7.40
2007,12,03,15,50,7.40
2007,12,03,15,51,7.40
2007,12,03,15,52,7.40
2007,12,03,15,53,7.40
2007,12,03,15,54,7.30
2007,12,03,15,55,7.20
2007,12,03,15,56,7.20
2007,12,03,15,57,7.20
2007,12,03,15,58,7.10
2007,12,03,15,59,7.10
2007,12,03,16,00,7.00
2007,12,03,16,01,6.90
2007,12,03,16,02,6.90
2007,12,03,16,03,6.80
2007,12,03,16,04,6.80
2007,12,03,16,05,6.70
2007,12,03,16,06,6.70
2007,12,03,16,07,6.70
2007,12,03,16,08,6.60
2007,12,03,16,09,6.60
2007,12,03,16,10,6.50
2007,12,03,16,11,6.50
2007,12,03,16,12,6.50
2007,12,03,16,13,6.40
2007,12,03,16,14,6.40
2007,12,03,16,15,6.30
2007,12,03,16,16,6.30
2007,12,03,16,17,6.30
2007,12,03,16,18,6.40
2007,12,03,16,19,6.30
2007,12,03,16,20,6.30
2007,12,03,16,21,6.30
2007,12,03,16,22,6.30
2007,12,03,16,23,6.20
2007,12,03,16,24,6.20
2007,12,03,16,25,6.10
2007,12,03,16,26,6.10
2007,12,03,16,27,6.10
2007,12,03,16,28,6.10
2007,12,03,16,29,6.10
2007,12,03,16,30,6.00
2007,12,03,16,31,6.00
2007,12,03,16,32,5.90
2007,12,03,16,33,5.90
2007,12,03,16,34,5.90
2007,12,03,16,35,5.80
2007,12,03,16,36,5.80
2007,12,03,16,37,5.70
2007,12,03,16,38,5.70
2007,12,03,16,39,5.70
2007,12,03,16,40,5.70
2007,12,03,16,41,5.80
2007,12,03,16,42,5.80
2007,12,03,16,43,5.90
2007,12,03,16,44,6.00
2007,12,03,16,45,6.00
2007,12,03,16,46,6.10
2007,12,03,16,47,6.10
2007,12,03,16,48,6.20
2007,12,03,16,49,6.20
2007,12,03,16,50,6.30
2007,12,03,16,51,6.40
2007,12,03,16,52,6.40
2007,12,03,16,53,6.40
2007,12,03,16,54,6.40
2007,12,03,16,55,6.40
2007,12,03,16,56,6.30
2007,12,03,16,57,6.30
2007,12,03,16,58,6.20
2007,12,03,16,59,6.20
2007,12,03,17,00,6.20
2007,12,03,17,01,6.20
2007,12,03,17,02,6.20
2007,12,03,17,03,6.20
2007,12,03,17,04,6.20
2007,12,03,17,05,6.20
2007,12,03,17,06,6.30
2007,12,03,17,07,6.20
2007,12,03,17,08,6.20
2007,12,03,17,09,6.20
2007,12,03,17,10,6.20
2007,12,03,17,11,6.20
2007,12,03,17,12,6.30
2007,12,03,17,13,6.20
2007,12,03,17,14,6.20
2007,12,03,17,15,6.10
2007,12,03,17,16,6.00
2007,12,03,17,17,5.90
2007,12,03,17,18,5.90
2007,12,03,17,19,5.90
2007,12,03,17,20,5.90
2007,12,03,17,21,5.90
2007,12,03,17,22,5.90
2007,12,03,17,23,5.90
2007,12,03,17,24,5.90
2007,12,03,17,25,5.90
2007,12,03,17,26,5.80
2007,12,03,17,27,5.90
2007,12,03,17,28,5.90
2007,12,03,17,29,6.00
2007,12,03,17,30,6.00
2007,12,03,17,31,6.10
2007,12,03,17,32,6.10
2007,12,03,17,33,6.10
2007,12,03,17,34,6.10
2007,12,03,17,35,6.00
2007,12,03,17,36,6.00
2007,12,03,17,37,6.00
2007,12,03,17,38,6.10
2007,12,03,17,39,6.20
2007,12,03,17,40,6.20
2007,12,03,17,41,6.20
2007,12,03,17,42,6.10
2007,12,03,17,43,6.10
2007,12,03,17,44,6.10
2007,12,03,17,45,6.10
2007,12,03,17,46,6.00
2007,12,03,17,47,6.00
2007,12,03,17,48,5.90
2007,12,03,17,49,5.90
2007,12,03,17,50,5.90
2007,12,03,17,51,5.90
2007,12,03,17,52,5.80
2007,12,03,17,53,5.80
2007,12,03,17,54,5.70
2007,12,03,17,55,5.60
2007,12,03,17,56,5.50
2007,12,03,17,57,5.40
2007,12,03,17,58,5.40
2007,12,03,17,59,5.40